Regional Weather Roundup
Issued by NWS

Home | Current Version | Previous Version | Text Only | Print | Product List | Glossary Off
Versions: 1 2 3 4 5 6 7 8 9 10 11 12 13 14 15 16 17 18 19 20 21 22 23 24 25 26 27 28 29 30 31 32 33 34 35 36 37 38 39 40 41 42 43 44 45 46 47 48 49 50

000
ASUS43 KFSD 251110
RWRSD

WEATHER ROUNDUP FOR SOUTH DAKOTA
NATIONAL WEATHER SERVICE SIOUX FALLS SD
600 AM CDT THU AUG 25 2016

NOTE: "FAIR" INDICATES FEW OR NO CLOUDS BELOW 12,000 FEET WITH NO
SIGNIFICANT WEATHER AND/OR OBSTRUCTIONS TO VISIBILITY.


SDZ001>005-009-010-012>017-251200-
NORTHWEST AND NORTH CENTRAL SOUTH DAKOTA

CITY           SKY/WX    TMP DP  RH WIND       PRES   REMARKS
BUFFALO          N/A     50  46  86 NW15      30.17S
FAITH            N/A     47  45  93 W6        30.20S
MOBRIDGE       CLEAR     54  47  77 NW12      30.13R
$$

SDZ012>016-024>037-041>051-057-063-072>074-251200-
SOUTHWEST AND SOUTH CENTRAL SOUTH DAKOTA

CITY           SKY/WX    TMP DP  RH WIND       PRES   REMARKS
RAPID CTY ARPT CLOUDY    55  40  56 N14       30.23S
PIERRE         CLEAR     54  47  77 NW9       30.17R
CUSTER         CLOUDY    51  37  58 CALM      30.28S
ELLSWORTH AFB  MOCLDY    55  41  59 N12       30.23S
PHILIP         PTCLDY    50  46  86 W6        30.21S
PINE RIDGE     LGT RAIN  52  48  86 NE8       30.24F
WINNER         FAIR      54  47  77 W5        30.20R
$$

SDZ004>011-016>023-039-040-251200-
NORTHEAST SOUTH DAKOTA

CITY           SKY/WX    TMP DP  RH WIND       PRES   REMARKS
ABERDEEN       CLEAR     51  47  86 SW6       30.11R
WATERTOWN      CLEAR     57  49  74 W8        30.09S
BROOKINGS      PTCLDY    52  51  97 NW3       30.10S
SISSETON         N/A     56  50  80 NW13      30.04R
$$

SDZ017-020-022-023-036>040-048>070-251200-
SOUTHEAST SOUTH DAKOTA

CITY           SKY/WX    TMP DP  RH WIND       PRES   REMARKS
SIOUX FALLS    MOCLDY    59  55  87 CALM      30.10R
HURON          CLEAR     50  47  89 NW7       30.13R
CHAMBERLAIN    CLEAR     58  50  72 N8        30.17R
MITCHELL       MOCLDY    54  50  86 N3        30.13R
YANKTON        CLOUDY    57  52  82 NW8       30.09S
$$

ABBREVIATIONS USED IN REMARKS
   TC - TEMPERATURE IN CELSIUS
  WCI - WIND CHILL INDEX
   HX - HEAT INDEX
  VSB - VISIBILITY





USA.gov is the U.S. government's official web portal to all federal, state and local government web resources and services.